Location: Krasnoyarskiy Pitomnik
(51.1333°N, 71.6167°E)
Time: 22:11:28
(UTC+00:00)

Altair - Pass Details

Date: 19 April 2024
Orbit: 1501 x 1682 km, 47.2° (Epoch: 19 May)

Event Time Altitude Azimuth Distance (km) Brightness Sun altitude
Rises 20:08:54 0° 286° (WNW) 4,828 10.1 -26.1°
Reaches altitude 10° 20:12:17 10° 279° (W) 3,814 9.5 -26.0°
Enters shadow 20:20:07 39° 227° (SW) 2,194 7.8 -25.6°
Maximum altitude 20:20:57 40° 215° (SW) 2,168 - -25.6°
Drops below altitude 10° 20:29:20 10° 151° (SSE) 3,683 - -25.1°
Sets 20:32:33 0° 144° (SE) 4,647 - -24.9°
